owner,sensor,date,latitude,longitude,air_pressure(mBar),qcFlag 
TABS,ioos:station:wmo:42047:1,2017-03-01T00:00:00Z,27.8966,-93.5973,1014.44,11111222 
TABS,ioos:station:wmo:42047:1,2017-03-01T00:30:00Z,27.8966,-93.5973,1014.33,11111222 
TABS,ioos:station:wmo:42047:1,2017-03-01T01:00:00Z,27.8966,-93.5973,1014.67,11111222 
TABS,ioos:station:wmo:42047:1,2017-03-01T01:30:00Z,27.8966,-93.5973,1014.81,11111222 
TABS,ioos:station:wmo:42047:1,2017-03-01T02:00:00Z,27.8966,-93.5973,1015.13,11111222 
TABS,ioos:station:wmo:42047:1,2017-03-01T02:30:00Z,27.8966,-93.5973,1015.22,11111222 
TABS,ioos:station:wmo:42047:1,2017-03-01T03:00:00Z,27.8966,-93.5973,1015.24,11111222 
TABS,ioos:station:wmo:42047:1,2017-03-01T03:30:00Z,27.8966,-93.5973,1015.11,11111222 
TABS,ioos:station:wmo:42047:1,2017-03-01T04:00:00Z,27.8966,-93.5973,1015.18,11111222 
TABS,ioos:station:wmo:42047:1,2017-03-01T04:30:00Z,27.8966,-93.5973,1015.27,11111222 
TABS,ioos:station:wmo:42047:1,2017-03-01T05:00:00Z,27.8966,-93.5973,1015.01,11111222 
TABS,ioos:station:wmo:42047:1,2017-03-01T05:30:00Z,27.8966,-93.5973,1014.85,11111222 
TABS,ioos:station:wmo:42047:1,2017-03-01T06:00:00Z,27.8966,-93.5973,1014.42,11111222 
TABS,ioos:station:wmo:42047:1,2017-03-01T06:30:00Z,27.8966,-93.5973,1014.79,11111222 
TABS,ioos:station:wmo:42047:1,2017-03-01T07:00:00Z,27.8966,-93.5973,1014.68,11111222 
TABS,ioos:station:wmo:42047:1,2017-03-01T07:30:00Z,27.8966,-93.5973,1014.2,11111222 
TABS,ioos:station:wmo:42047:1,2017-03-01T08:00:00Z,27.8966,-93.5973,1014.1,11111222 
TABS,ioos:station:wmo:42047:1,2017-03-01T08:30:00Z,27.8966,-93.5973,1013.77,11111222 
TABS,ioos:station:wmo:42047:1,2017-03-01T09:00:00Z,27.8966,-93.5973,1013.1,11111222 
TABS,ioos:station:wmo:42047:1,2017-03-01T09:30:00Z,27.8966,-93.5973,1012.9,11111222 
TABS,ioos:station:wmo:42047:1,2017-03-01T10:00:00Z,27.8966,-93.5973,1013.25,11111222 
TABS,ioos:station:wmo:42047:1,2017-03-01T10:30:00Z,27.8966,-93.5973,1012.91,11111222 
TABS,ioos:station:wmo:42047:1,2017-03-01T11:00:00Z,27.8966,-93.5973,1013.3,11111222 
TABS,ioos:station:wmo:42047:1,2017-03-01T11:30:00Z,27.8966,-93.5973,1014.09,11111222 
TABS,ioos:station:wmo:42047:1,2017-03-01T12:00:00Z,27.8966,-93.5973,1014.74,11111222 
TABS,ioos:station:wmo:42047:1,2017-03-01T12:30:00Z,27.8966,-93.5973,1015.58,11111222 
TABS,ioos:station:wmo:42047:1,2017-03-01T13:00:00Z,27.8966,-93.5973,1016.08,11111222 
TABS,ioos:station:wmo:42047:1,2017-03-01T13:30:00Z,27.8966,-93.5973,1016.14,11111222 
TABS,ioos:station:wmo:42047:1,2017-03-01T14:00:00Z,27.8966,-93.5973,1016.17,11111222 
TABS,ioos:station:wmo:42047:1,2017-03-01T14:30:00Z,27.8966,-93.5973,1016.36,11111222 
TABS,ioos:station:wmo:42047:1,2017-03-01T15:00:00Z,27.8966,-93.5973,1017.04,11111222 
TABS,ioos:station:wmo:42047:1,2017-03-01T15:30:00Z,27.8966,-93.5973,1017.23,11111222 
TABS,ioos:station:wmo:42047:1,2017-03-01T16:00:00Z,27.8966,-93.5973,1017.57,11111222 
TABS,ioos:station:wmo:42047:1,2017-03-01T16:30:00Z,27.8966,-93.5973,1017.62,11111222 
TABS,ioos:station:wmo:42047:1,2017-03-01T17:00:00Z,27.8966,-93.5973,1018.0,11111222 
TABS,ioos:station:wmo:42047:1,2017-03-01T17:30:00Z,27.8966,-93.5973,1017.99,11111222 
TABS,ioos:station:wmo:42047:1,2017-03-01T18:00:00Z,27.8966,-93.5973,1017.74,11111222 
TABS,ioos:station:wmo:42047:1,2017-03-01T18:30:00Z,27.8966,-93.5973,1017.45,11111222 
TABS,ioos:station:wmo:42047:1,2017-03-01T19:00:00Z,27.8966,-93.5973,1017.39,11111222 
TABS,ioos:station:wmo:42047:1,2017-03-01T19:30:00Z,27.8966,-93.5973,1016.77,11111222 
TABS,ioos:station:wmo:42047:1,2017-03-01T20:00:00Z,27.8966,-93.5973,1016.21,11111222 
TABS,ioos:station:wmo:42047:1,2017-03-01T20:30:00Z,27.8966,-93.5973,1016.09,11111222 
TABS,ioos:station:wmo:42047:1,2017-03-01T21:00:00Z,27.8966,-93.5973,1015.93,11111222 
TABS,ioos:station:wmo:42047:1,2017-03-01T21:30:00Z,27.8966,-93.5973,1015.89,11111222 
TABS,ioos:station:wmo:42047:1,2017-03-01T22:00:00Z,27.8966,-93.5973,1015.63,11111222 
TABS,ioos:station:wmo:42047:1,2017-03-01T22:30:00Z,27.8966,-93.5973,1015.74,11111222 
TABS,ioos:station:wmo:42047:1,2017-03-01T23:00:00Z,27.8966,-93.5973,1015.72,11111222 
TABS,ioos:station:wmo:42047:1,2017-03-01T23:30:00Z,27.8966,-93.5973,1015.88,11111222 
TABS,ioos:station:wmo:42047:1,2017-03-02T00:00:00Z,27.8966,-93.5973,1016.12,11111222 
TABS,ioos:station:wmo:42047:1,2017-03-02T00:30:00Z,27.8966,-93.5973,1016.57,11111222 
TABS,ioos:station:wmo:42047:1,2017-03-02T01:00:00Z,27.8966,-93.5973,1017.04,11111222 
TABS,ioos:station:wmo:42047:1,2017-03-02T01:30:00Z,27.8966,-93.5973,1017.49,11111222 
TABS,ioos:station:wmo:42047:1,2017-03-02T02:00:00Z,27.8966,-93.5973,1017.7,11111222 
TABS,ioos:station:wmo:42047:1,2017-03-02T02:30:00Z,27.8966,-93.5973,1018.13,11111222 
TABS,ioos:station:wmo:42047:1,2017-03-02T03:00:00Z,27.8966,-93.5973,1018.4,11111222 
TABS,ioos:station:wmo:42047:1,2017-03-02T03:30:00Z,27.8966,-93.5973,1018.69,11111222 
TABS,ioos:station:wmo:42047:1,2017-03-02T04:00:00Z,27.8966,-93.5973,1018.83,11111222 
TABS,ioos:station:wmo:42047:1,2017-03-02T04:30:00Z,27.8966,-93.5973,1018.95,11111222 
TABS,ioos:station:wmo:42047:1,2017-03-02T05:00:00Z,27.8966,-93.5973,1019.17,11111222 
TABS,ioos:station:wmo:42047:1,2017-03-02T05:30:00Z,27.8966,-93.5973,1019.35,11111222 
TABS,ioos:station:wmo:42047:1,2017-03-02T06:00:00Z,27.8966,-93.5973,1019.43,11111222 
TABS,ioos:station:wmo:42047:1,2017-03-02T06:30:00Z,27.8966,-93.5973,1019.44,11111222 
TABS,ioos:station:wmo:42047:1,2017-03-02T07:00:00Z,27.8966,-93.5973,1019.39,11111222 
TABS,ioos:station:wmo:42047:1,2017-03-02T07:30:00Z,27.8966,-93.5973,1019.26,11111222 
TABS,ioos:station:wmo:42047:1,2017-03-02T08:00:00Z,27.8966,-93.5973,1019.33,11111222 
TABS,ioos:station:wmo:42047:1,2017-03-02T08:30:00Z,27.8966,-93.5973,1018.95,11111222 
TABS,ioos:station:wmo:42047:1,2017-03-02T09:00:00Z,27.8966,-93.5973,1019.5,11111222 
TABS,ioos:station:wmo:42047:1,2017-03-02T09:30:00Z,27.8966,-93.5973,1019.49,11111222 
TABS,ioos:station:wmo:42047:1,2017-03-02T10:00:00Z,27.8966,-93.5973,1019.28,11111222 
TABS,ioos:station:wmo:42047:1,2017-03-02T10:30:00Z,27.8966,-93.5973,1019.92,11111222 
TABS,ioos:station:wmo:42047:1,2017-03-02T11:00:00Z,27.8966,-93.5973,1020.3,11111222 
TABS,ioos:station:wmo:42047:1,2017-03-02T11:30:00Z,27.8966,-93.5973,1020.59,11111222 
TABS,ioos:station:wmo:42047:1,2017-03-02T12:00:00Z,27.8966,-93.5973,1020.92,11111222 
TABS,ioos:station:wmo:42047:1,2017-03-02T12:30:00Z,27.8966,-93.5973,1021.62,11111222 
TABS,ioos:station:wmo:42047:1,2017-03-02T13:00:00Z,27.8966,-93.5973,1021.94,11111222 
TABS,ioos:station:wmo:42047:1,2017-03-02T13:30:00Z,27.8966,-93.5973,1022.32,11111222 
TABS,ioos:station:wmo:42047:1,2017-03-02T14:00:00Z,27.8966,-93.5973,1023.36,11111222 
TABS,ioos:station:wmo:42047:1,2017-03-02T14:30:00Z,27.8966,-93.5973,1023.66,11111222 
TABS,ioos:station:wmo:42047:1,2017-03-02T15:00:00Z,27.8966,-93.5973,1023.99,11111222 
TABS,ioos:station:wmo:42047:1,2017-03-02T15:30:00Z,27.8966,-93.5973,1025.08,11111222 
TABS,ioos:station:wmo:42047:1,2017-03-02T16:00:00Z,27.8966,-93.5973,1025.27,11111222 
TABS,ioos:station:wmo:42047:1,2017-03-02T16:30:00Z,27.8966,-93.5973,1025.3,11111222 
TABS,ioos:station:wmo:42047:1,2017-03-02T17:00:00Z,27.8966,-93.5973,1025.55,11111222 
TABS,ioos:station:wmo:42047:1,2017-03-02T17:30:00Z,27.8966,-93.5973,1025.45,11111222 
TABS,ioos:station:wmo:42047:1,2017-03-02T18:00:00Z,27.8966,-93.5973,1025.29,11111222 
TABS,ioos:station:wmo:42047:1,2017-03-02T18:30:00Z,27.8966,-93.5973,1025.45,11111222 
TABS,ioos:station:wmo:42047:1,2017-03-02T19:00:00Z,27.8966,-93.5973,1025.14,11111222 
TABS,ioos:station:wmo:42047:1,2017-03-02T19:30:00Z,27.8966,-93.5973,1025.16,11111222 
TABS,ioos:station:wmo:42047:1,2017-03-02T20:00:00Z,27.8966,-93.5973,1024.85,11111222 
TABS,ioos:station:wmo:42047:1,2017-03-02T20:30:00Z,27.8966,-93.5973,1024.76,11111222 
TABS,ioos:station:wmo:42047:1,2017-03-02T21:00:00Z,27.8966,-93.5973,1025.03,11111222 
TABS,ioos:station:wmo:42047:1,2017-03-02T21:30:00Z,27.8966,-93.5973,1025.07,11111222 
TABS,ioos:station:wmo:42047:1,2017-03-02T22:00:00Z,27.8966,-93.5973,1025.07,11111222 
TABS,ioos:station:wmo:42047:1,2017-03-02T22:30:00Z,27.8966,-93.5973,1025.34,11111222 
TABS,ioos:station:wmo:42047:1,2017-03-02T23:00:00Z,27.8966,-93.5973,1025.68,11111222 
TABS,ioos:station:wmo:42047:1,2017-03-02T23:30:00Z,27.8966,-93.5973,1026.0,11111222 
TABS,ioos:station:wmo:42047:1,2017-03-03T00:00:00Z,27.8966,-93.5973,1026.22,11111222 
TABS,ioos:station:wmo:42047:1,2017-03-03T00:30:00Z,27.8966,-93.5973,1027.14,11111222 
TABS,ioos:station:wmo:42047:1,2017-03-03T01:00:00Z,27.8966,-93.5973,1026.81,11111222 
TABS,ioos:station:wmo:42047:1,2017-03-03T01:30:00Z,27.8966,-93.5973,1027.7,11111222 
TABS,ioos:station:wmo:42047:1,2017-03-03T02:00:00Z,27.8966,-93.5973,1027.75,11111222 
TABS,ioos:station:wmo:42047:1,2017-03-03T02:30:00Z,27.8966,-93.5973,1027.99,11111222 
TABS,ioos:station:wmo:42047:1,2017-03-03T03:00:00Z,27.8966,-93.5973,1028.38,11111222 
TABS,ioos:station:wmo:42047:1,2017-03-03T03:30:00Z,27.8966,-93.5973,1028.15,11111222 
TABS,ioos:station:wmo:42047:1,2017-03-03T04:00:00Z,27.8966,-93.5973,1028.38,11111222 
TABS,ioos:station:wmo:42047:1,2017-03-03T04:30:00Z,27.8966,-93.5973,1028.61,11111222 
TABS,ioos:station:wmo:42047:1,2017-03-03T05:00:00Z,27.8966,-93.5973,1028.61,11111222 
TABS,ioos:station:wmo:42047:1,2017-03-03T05:30:00Z,27.8966,-93.5973,1028.86,11111222 
TABS,ioos:station:wmo:42047:1,2017-03-03T06:00:00Z,27.8966,-93.5973,1028.57,11111222 
TABS,ioos:station:wmo:42047:1,2017-03-03T06:30:00Z,27.8966,-93.5973,1028.77,11111222 
TABS,ioos:station:wmo:42047:1,2017-03-03T07:00:00Z,27.8966,-93.5973,1028.17,11111222 
TABS,ioos:station:wmo:42047:1,2017-03-03T07:30:00Z,27.8966,-93.5973,1028.65,11111222 
TABS,ioos:station:wmo:42047:1,2017-03-03T08:00:00Z,27.8966,-93.5973,1028.4,11111222 
TABS,ioos:station:wmo:42047:1,2017-03-03T08:30:00Z,27.8966,-93.5973,1028.02,11111222 
TABS,ioos:station:wmo:42047:1,2017-03-03T09:00:00Z,27.8966,-93.5973,1027.97,11111222 
TABS,ioos:station:wmo:42047:1,2017-03-03T09:30:00Z,27.8966,-93.5973,1027.89,11111222 
TABS,ioos:station:wmo:42047:1,2017-03-03T10:00:00Z,27.8966,-93.5973,1028.62,11111222 
TABS,ioos:station:wmo:42047:1,2017-03-03T10:30:00Z,27.8966,-93.5973,1028.8,11111222 
TABS,ioos:station:wmo:42047:1,2017-03-03T11:00:00Z,27.8966,-93.5973,1029.04,11111222 
TABS,ioos:station:wmo:42047:1,2017-03-03T11:30:00Z,27.8966,-93.5973,1029.24,11111222 
TABS,ioos:station:wmo:42047:1,2017-03-03T12:00:00Z,27.8966,-93.5973,1029.21,11111222 
TABS,ioos:station:wmo:42047:1,2017-03-03T12:30:00Z,27.8966,-93.5973,1029.55,11111222 
TABS,ioos:station:wmo:42047:1,2017-03-03T13:00:00Z,27.8966,-93.5973,1029.79,11111222 
TABS,ioos:station:wmo:42047:1,2017-03-03T13:30:00Z,27.8966,-93.5973,1030.35,11111222 
TABS,ioos:station:wmo:42047:1,2017-03-03T14:00:00Z,27.8966,-93.5973,1030.66,11111222 
TABS,ioos:station:wmo:42047:1,2017-03-03T14:30:00Z,27.8966,-93.5973,1030.84,11111222 
TABS,ioos:station:wmo:42047:1,2017-03-03T15:00:00Z,27.8966,-93.5973,1031.3,11111222 
TABS,ioos:station:wmo:42047:1,2017-03-03T15:30:00Z,27.8966,-93.5973,1031.14,11111222 
TABS,ioos:station:wmo:42047:1,2017-03-03T16:00:00Z,27.8966,-93.5973,1031.18,11111222 
TABS,ioos:station:wmo:42047:1,2017-03-03T16:30:00Z,27.8966,-93.5973,1031.24,11111222 
TABS,ioos:station:wmo:42047:1,2017-03-03T17:00:00Z,27.8966,-93.5973,1030.9,11111222 
TABS,ioos:station:wmo:42047:1,2017-03-03T17:30:00Z,27.8966,-93.5973,1031.47,11111222 
TABS,ioos:station:wmo:42047:1,2017-03-03T18:00:00Z,27.8966,-93.5973,1031.1,11111222 
TABS,ioos:station:wmo:42047:1,2017-03-03T18:30:00Z,27.8966,-93.5973,1030.92,11111222 
TABS,ioos:station:wmo:42047:1,2017-03-03T19:00:00Z,27.8966,-93.5973,1030.83,11111222 
TABS,ioos:station:wmo:42047:1,2017-03-03T19:30:00Z,27.8966,-93.5973,1030.5,11111222 
TABS,ioos:station:wmo:42047:1,2017-03-03T20:00:00Z,27.8966,-93.5973,1030.29,11111222 
TABS,ioos:station:wmo:42047:1,2017-03-03T20:30:00Z,27.8966,-93.5973,1030.19,11111222 
TABS,ioos:station:wmo:42047:1,2017-03-03T21:00:00Z,27.8966,-93.5973,1030.07,11111222 
TABS,ioos:station:wmo:42047:1,2017-03-03T21:30:00Z,27.8966,-93.5973,1029.8,11111222 
TABS,ioos:station:wmo:42047:1,2017-03-03T22:00:00Z,27.8966,-93.5973,1029.85,11111222 
TABS,ioos:station:wmo:42047:1,2017-03-03T22:30:00Z,27.8966,-93.5973,1029.49,11111222 
TABS,ioos:station:wmo:42047:1,2017-03-03T23:00:00Z,27.8966,-93.5973,1029.59,11111222 
TABS,ioos:station:wmo:42047:1,2017-03-03T23:30:00Z,27.8966,-93.5973,1029.58,11111222 
TABS,ioos:station:wmo:42047:1,2017-03-04T00:00:00Z,27.8966,-93.5973,1029.94,11111222 
TABS,ioos:station:wmo:42047:1,2017-03-04T00:30:00Z,27.8966,-93.5973,1030.33,11111222 
TABS,ioos:station:wmo:42047:1,2017-03-04T01:00:00Z,27.8966,-93.5973,1030.4,11111222 
TABS,ioos:station:wmo:42047:1,2017-03-04T01:30:00Z,27.8966,-93.5973,1030.17,11111222 
TABS,ioos:station:wmo:42047:1,2017-03-04T02:00:00Z,27.8966,-93.5973,1030.86,11111222 
TABS,ioos:station:wmo:42047:1,2017-03-04T02:30:00Z,27.8966,-93.5973,1031.05,11111222 
TABS,ioos:station:wmo:42047:1,2017-03-04T03:00:00Z,27.8966,-93.5973,1030.66,11111222 
TABS,ioos:station:wmo:42047:1,2017-03-04T03:30:00Z,27.8966,-93.5973,1030.68,11111222 
TABS,ioos:station:wmo:42047:1,2017-03-04T04:00:00Z,27.8966,-93.5973,1030.6,11111222 
TABS,ioos:station:wmo:42047:1,2017-03-04T04:30:00Z,27.8966,-93.5973,1030.21,11111222 
TABS,ioos:station:wmo:42047:1,2017-03-04T05:00:00Z,27.8966,-93.5973,1030.14,11111222 
TABS,ioos:station:wmo:42047:1,2017-03-04T05:30:00Z,27.8966,-93.5973,1029.71,11111222 
TABS,ioos:station:wmo:42047:1,2017-03-04T06:00:00Z,27.8966,-93.5973,1029.63,11111222 
TABS,ioos:station:wmo:42047:1,2017-03-04T06:30:00Z,27.8966,-93.5973,1029.26,11111222 
TABS,ioos:station:wmo:42047:1,2017-03-04T07:00:00Z,27.8966,-93.5973,1029.18,11111222 
TABS,ioos:station:wmo:42047:1,2017-03-04T07:30:00Z,27.8966,-93.5973,1029.0,11111222 
TABS,ioos:station:wmo:42047:1,2017-03-04T08:00:00Z,27.8966,-93.5973,1028.84,11111222 
TABS,ioos:station:wmo:42047:1,2017-03-04T08:30:00Z,27.8966,-93.5973,1028.78,11111222 
TABS,ioos:station:wmo:42047:1,2017-03-04T09:00:00Z,27.8966,-93.5973,1028.47,11111222 
TABS,ioos:station:wmo:42047:1,2017-03-04T09:30:00Z,27.8966,-93.5973,1028.51,11111222 
TABS,ioos:station:wmo:42047:1,2017-03-04T10:00:00Z,27.8966,-93.5973,1028.4,11111222 
TABS,ioos:station:wmo:42047:1,2017-03-04T10:30:00Z,27.8966,-93.5973,1027.8,11111222 
TABS,ioos:station:wmo:42047:1,2017-03-04T11:00:00Z,27.8966,-93.5973,1027.59,11111222 
TABS,ioos:station:wmo:42047:1,2017-03-04T11:30:00Z,27.8966,-93.5973,1027.8,11111222 
TABS,ioos:station:wmo:42047:1,2017-03-04T12:00:00Z,27.8966,-93.5973,1027.6,11111222 
TABS,ioos:station:wmo:42047:1,2017-03-04T12:30:00Z,27.8966,-93.5973,1027.83,11111222 
TABS,ioos:station:wmo:42047:1,2017-03-04T13:00:00Z,27.8966,-93.5973,1027.4,11111222 
TABS,ioos:station:wmo:42047:1,2017-03-04T13:30:00Z,27.8966,-93.5973,1028.04,11111222 
TABS,ioos:station:wmo:42047:1,2017-03-04T14:00:00Z,27.8966,-93.5973,1028.3,11111222 
TABS,ioos:station:wmo:42047:1,2017-03-04T14:30:00Z,27.8966,-93.5973,1028.69,11111222 
TABS,ioos:station:wmo:42047:1,2017-03-04T15:00:00Z,27.8966,-93.5973,1028.75,11111222 
TABS,ioos:station:wmo:42047:1,2017-03-04T15:30:00Z,27.8966,-93.5973,1029.08,11111222 
TABS,ioos:station:wmo:42047:1,2017-03-04T16:00:00Z,27.8966,-93.5973,1028.54,11111222 
TABS,ioos:station:wmo:42047:1,2017-03-04T16:30:00Z,27.8966,-93.5973,1028.46,11111222 
TABS,ioos:station:wmo:42047:1,2017-03-04T17:00:00Z,27.8966,-93.5973,1027.8,11111222 
TABS,ioos:station:wmo:42047:1,2017-03-04T17:30:00Z,27.8966,-93.5973,1027.81,11111222 
TABS,ioos:station:wmo:42047:1,2017-03-04T18:00:00Z,27.8966,-93.5973,1027.09,11111222 
TABS,ioos:station:wmo:42047:1,2017-03-04T18:30:00Z,27.8966,-93.5973,1026.69,11111222 
TABS,ioos:station:wmo:42047:1,2017-03-04T19:00:00Z,27.8966,-93.5973,1026.09,11111222 
TABS,ioos:station:wmo:42047:1,2017-03-04T19:30:00Z,27.8966,-93.5973,1025.72,11111222 
TABS,ioos:station:wmo:42047:1,2017-03-04T20:00:00Z,27.8966,-93.5973,1025.63,11111222 
TABS,ioos:station:wmo:42047:1,2017-03-04T20:30:00Z,27.8966,-93.5973,1025.29,11111222 
TABS,ioos:station:wmo:42047:1,2017-03-04T21:00:00Z,27.8966,-93.5973,1025.12,11111222 
TABS,ioos:station:wmo:42047:1,2017-03-04T21:30:00Z,27.8966,-93.5973,1024.99,11111222 
TABS,ioos:station:wmo:42047:1,2017-03-04T22:00:00Z,27.8966,-93.5973,1025.11,11111222 
TABS,ioos:station:wmo:42047:1,2017-03-04T22:30:00Z,27.8966,-93.5973,1024.72,11111222 
TABS,ioos:station:wmo:42047:1,2017-03-04T23:00:00Z,27.8966,-93.5973,1024.85,11111222 
TABS,ioos:station:wmo:42047:1,2017-03-04T23:30:00Z,27.8966,-93.5973,1025.16,11111222 
TABS,ioos:station:wmo:42047:1,2017-03-05T00:00:00Z,27.8966,-93.5973,1025.4,11111222 
TABS,ioos:station:wmo:42047:1,2017-03-05T00:30:00Z,27.8966,-93.5973,1025.33,11111222 
TABS,ioos:station:wmo:42047:1,2017-03-05T01:00:00Z,27.8966,-93.5973,1025.41,11111222 
TABS,ioos:station:wmo:42047:1,2017-03-05T01:30:00Z,27.8966,-93.5973,1025.4,11111222 
TABS,ioos:station:wmo:42047:1,2017-03-05T02:00:00Z,27.8966,-93.5973,1025.36,11111222 
TABS,ioos:station:wmo:42047:1,2017-03-05T02:30:00Z,27.8966,-93.5973,1025.45,11111222 
TABS,ioos:station:wmo:42047:1,2017-03-05T03:00:00Z,27.8966,-93.5973,1025.32,11111222 
TABS,ioos:station:wmo:42047:1,2017-03-05T03:30:00Z,27.8966,-93.5973,1025.17,11111222 
TABS,ioos:station:wmo:42047:1,2017-03-05T04:00:00Z,27.8966,-93.5973,1024.82,11111222 
TABS,ioos:station:wmo:42047:1,2017-03-05T04:30:00Z,27.8966,-93.5973,1024.39,11111222 
TABS,ioos:station:wmo:42047:1,2017-03-05T05:00:00Z,27.8966,-93.5973,1024.0,11111222 
TABS,ioos:station:wmo:42047:1,2017-03-05T05:30:00Z,27.8966,-93.5973,1024.03,11111222 
TABS,ioos:station:wmo:42047:1,2017-03-05T06:00:00Z,27.8966,-93.5973,1024.21,11111222 
TABS,ioos:station:wmo:42047:1,2017-03-05T06:30:00Z,27.8966,-93.5973,1023.82,11111222 
TABS,ioos:station:wmo:42047:1,2017-03-05T07:00:00Z,27.8966,-93.5973,1023.82,11111222 
TABS,ioos:station:wmo:42047:1,2017-03-05T07:30:00Z,27.8966,-93.5973,1023.12,11111222 
TABS,ioos:station:wmo:42047:1,2017-03-05T08:00:00Z,27.8966,-93.5973,1022.88,11111222 
TABS,ioos:station:wmo:42047:1,2017-03-05T08:30:00Z,27.8966,-93.5973,1022.2,11111222 
TABS,ioos:station:wmo:42047:1,2017-03-05T09:00:00Z,27.8966,-93.5973,1022.08,11111222 
TABS,ioos:station:wmo:42047:1,2017-03-05T09:30:00Z,27.8966,-93.5973,1021.63,11111222 
TABS,ioos:station:wmo:42047:1,2017-03-05T10:00:00Z,27.8966,-93.5973,1020.87,11111222 
TABS,ioos:station:wmo:42047:1,2017-03-05T10:30:00Z,27.8966,-93.5973,1020.95,11111222 
TABS,ioos:station:wmo:42047:1,2017-03-05T11:00:00Z,27.8966,-93.5973,1021.02,11111222 
TABS,ioos:station:wmo:42047:1,2017-03-05T11:30:00Z,27.8966,-93.5973,1020.61,11111222 
TABS,ioos:station:wmo:42047:1,2017-03-05T12:00:00Z,27.8966,-93.5973,1020.82,11111222 
TABS,ioos:station:wmo:42047:1,2017-03-05T12:30:00Z,27.8966,-93.5973,1021.4,11111222 
TABS,ioos:station:wmo:42047:1,2017-03-05T13:00:00Z,27.8966,-93.5973,1020.9,11111222 
TABS,ioos:station:wmo:42047:1,2017-03-05T13:30:00Z,27.8966,-93.5973,1021.57,11111222 
TABS,ioos:station:wmo:42047:1,2017-03-05T14:00:00Z,27.8966,-93.5973,1022.14,11111222 
TABS,ioos:station:wmo:42047:1,2017-03-05T14:30:00Z,27.8966,-93.5973,1022.03,11111222 
TABS,ioos:station:wmo:42047:1,2017-03-05T15:00:00Z,27.8966,-93.5973,1021.69,11111222 
TABS,ioos:station:wmo:42047:1,2017-03-05T15:30:00Z,27.8966,-93.5973,1022.58,11111222 
TABS,ioos:station:wmo:42047:1,2017-03-05T16:00:00Z,27.8966,-93.5973,1022.75,11111222 
TABS,ioos:station:wmo:42047:1,2017-03-05T16:30:00Z,27.8966,-93.5973,1022.75,11111222 
TABS,ioos:station:wmo:42047:1,2017-03-05T17:00:00Z,27.8966,-93.5973,1022.8,11111222 
TABS,ioos:station:wmo:42047:1,2017-03-05T17:30:00Z,27.8966,-93.5973,1022.63,11111222 
TABS,ioos:station:wmo:42047:1,2017-03-05T18:00:00Z,27.8966,-93.5973,1022.47,11111222 
TABS,ioos:station:wmo:42047:1,2017-03-05T18:30:00Z,27.8966,-93.5973,1021.62,11111222 
TABS,ioos:station:wmo:42047:1,2017-03-05T19:00:00Z,27.8966,-93.5973,1021.16,11111222 
TABS,ioos:station:wmo:42047:1,2017-03-05T19:30:00Z,27.8966,-93.5973,1020.81,11111222 
TABS,ioos:station:wmo:42047:1,2017-03-05T20:00:00Z,27.8966,-93.5973,1020.62,11111222 
TABS,ioos:station:wmo:42047:1,2017-03-05T20:30:00Z,27.8966,-93.5973,1020.39,11111222 
TABS,ioos:station:wmo:42047:1,2017-03-05T21:00:00Z,27.8966,-93.5973,1020.1,11111222 
TABS,ioos:station:wmo:42047:1,2017-03-05T21:30:00Z,27.8966,-93.5973,1020.25,11111222 
TABS,ioos:station:wmo:42047:1,2017-03-05T22:00:00Z,27.8966,-93.5973,1020.06,11111222 
TABS,ioos:station:wmo:42047:1,2017-03-05T22:30:00Z,27.8966,-93.5973,1019.98,11111222 
TABS,ioos:station:wmo:42047:1,2017-03-05T23:00:00Z,27.8966,-93.5973,1019.81,11111222 
TABS,ioos:station:wmo:42047:1,2017-03-05T23:30:00Z,27.8966,-93.5973,1019.77,11111222 
TABS,ioos:station:wmo:42047:1,2017-03-06T00:00:00Z,27.8966,-93.5973,1019.97,11111222 
TABS,ioos:station:wmo:42047:1,2017-03-06T00:30:00Z,27.8966,-93.5973,1020.04,11111222 
TABS,ioos:station:wmo:42047:1,2017-03-06T01:00:00Z,27.8966,-93.5973,1020.1,11111222 
TABS,ioos:station:wmo:42047:1,2017-03-06T01:30:00Z,27.8966,-93.5973,1020.18,11111222 
TABS,ioos:station:wmo:42047:1,2017-03-06T02:00:00Z,27.8966,-93.5973,1020.25,11111222 
TABS,ioos:station:wmo:42047:1,2017-03-06T02:30:00Z,27.8966,-93.5973,1020.12,11111222 
TABS,ioos:station:wmo:42047:1,2017-03-06T03:00:00Z,27.8966,-93.5973,1020.24,11111222 
TABS,ioos:station:wmo:42047:1,2017-03-06T03:30:00Z,27.8966,-93.5973,1020.17,11111222 
TABS,ioos:station:wmo:42047:1,2017-03-06T04:00:00Z,27.8966,-93.5973,1020.07,11111222 
TABS,ioos:station:wmo:42047:1,2017-03-06T04:30:00Z,27.8966,-93.5973,1020.06,11111222 
TABS,ioos:station:wmo:42047:1,2017-03-06T05:00:00Z,27.8966,-93.5973,1020.07,11111222 
TABS,ioos:station:wmo:42047:1,2017-03-06T05:30:00Z,27.8966,-93.5973,1019.79,11111222 
TABS,ioos:station:wmo:42047:1,2017-03-06T06:00:00Z,27.8966,-93.5973,1019.34,11111222 
TABS,ioos:station:wmo:42047:1,2017-03-06T06:30:00Z,27.8966,-93.5973,1019.62,11111222 
TABS,ioos:station:wmo:42047:1,2017-03-06T07:00:00Z,27.8966,-93.5973,1019.41,11111222 
TABS,ioos:station:wmo:42047:1,2017-03-06T07:30:00Z,27.8966,-93.5973,1018.84,11111222 
TABS,ioos:station:wmo:42047:1,2017-03-06T08:00:00Z,27.8966,-93.5973,1018.96,11111222 
TABS,ioos:station:wmo:42047:1,2017-03-06T08:30:00Z,27.8966,-93.5973,1018.67,11111222 
TABS,ioos:station:wmo:42047:1,2017-03-06T09:00:00Z,27.8966,-93.5973,1018.47,11111222 
TABS,ioos:station:wmo:42047:1,2017-03-06T09:30:00Z,27.8966,-93.5973,1018.36,11111222 
TABS,ioos:station:wmo:42047:1,2017-03-06T10:00:00Z,27.8966,-93.5973,1017.97,11111222 
TABS,ioos:station:wmo:42047:1,2017-03-06T10:30:00Z,27.8966,-93.5973,1017.87,11111222 
TABS,ioos:station:wmo:42047:1,2017-03-06T11:00:00Z,27.8966,-93.5973,1017.68,11111222 
TABS,ioos:station:wmo:42047:1,2017-03-06T11:30:00Z,27.8966,-93.5973,1017.92,11111222 
TABS,ioos:station:wmo:42047:1,2017-03-06T12:00:00Z,27.8966,-93.5973,1017.88,11111222 
TABS,ioos:station:wmo:42047:1,2017-03-06T12:30:00Z,27.8966,-93.5973,1017.94,11111222 
TABS,ioos:station:wmo:42047:1,2017-03-06T13:00:00Z,27.8966,-93.5973,1018.15,11111222 
TABS,ioos:station:wmo:42047:1,2017-03-06T13:30:00Z,27.8966,-93.5973,1018.54,11111222 
TABS,ioos:station:wmo:42047:1,2017-03-06T14:00:00Z,27.8966,-93.5973,1018.71,11111222 
TABS,ioos:station:wmo:42047:1,2017-03-06T14:30:00Z,27.8966,-93.5973,1019.07,11111222 
TABS,ioos:station:wmo:42047:1,2017-03-06T15:00:00Z,27.8966,-93.5973,1019.15,11111222 
TABS,ioos:station:wmo:42047:1,2017-03-06T15:30:00Z,27.8966,-93.5973,1019.27,11111222 
TABS,ioos:station:wmo:42047:1,2017-03-06T16:00:00Z,27.8966,-93.5973,1019.28,11111222 
TABS,ioos:station:wmo:42047:1,2017-03-06T16:30:00Z,27.8966,-93.5973,1019.28,11111222 
TABS,ioos:station:wmo:42047:1,2017-03-06T17:00:00Z,27.8966,-93.5973,1018.93,11111222 
TABS,ioos:station:wmo:42047:1,2017-03-06T17:30:00Z,27.8966,-93.5973,1018.55,11111222 
TABS,ioos:station:wmo:42047:1,2017-03-06T18:00:00Z,27.8966,-93.5973,1018.13,11111222 
TABS,ioos:station:wmo:42047:1,2017-03-06T18:30:00Z,27.8966,-93.5973,1017.89,11111222 